Hourly Data Report for October 06, 2014

All times are specified in Local Standard Time (LST). Add 1 hour to adjust for Daylight Saving Time where and when it is observed.

BATHURST A
NEW BRUNSWICK

47°37'47.000" N
65°44'20.000" W
58.80 m
8100505
71574
ZBF

Download Data

Hourly Data (October 2014)
Hourly Data Report for October 6, 2014
Temp Definition
°C
Dew Point Temp Definition
°C
Rel Hum Definition
%
Wind Dir Definition
10's deg

Wind Spd Definition
km/h
Visibility Definition
km
Stn Press Definition
kPa
Hmdx Definition


Wind Chill Definition


Weather Definition


TIME
00:00 Legend Double Dagger 8.9 7.0 88 27 10 24.1 100.10     LegendNANA
01:00 Legend Double Dagger 8.2 6.5 89 26 9 24.1 100.19     LegendNANA
02:00 Legend Double Dagger 8.5 6.0 84 28 10 24.1 100.25     Clear
03:00 Legend Double Dagger 8.1 5.7 85 28 9 24.1 100.32     LegendNANA
04:00 Legend Double Dagger 7.4 5.6 88 27 12 24.1 100.43     LegendNANA
05:00 Legend Double Dagger 6.7 5.2 90 27 11 24.1 100.53     Clear
06:00 Legend Double Dagger 6.3 5.1 92 27 10 24.1 100.58     LegendNANA
07:00 Legend Double Dagger 6.0 5.1 94 28 10 24.1 100.69     LegendNANA
08:00 Legend Double Dagger 8.3 5.6 83 23 9 24.1 100.80     Clear
09:00 Legend Double Dagger 10.7 6.3 74 28 12 24.1 100.87     LegendNANA
10:00 Legend Double Dagger 12.8 6.9 67 28 9 24.1 100.93     LegendNANA
11:00 Legend Double Dagger 14.2 5.9 57 29 9 24.1 100.97     Mainly Clear
12:00 Legend Double Dagger 14.2 4.8 53 26 9 24.1 101.01     LegendNANA
13:00 Legend Double Dagger 15.8 4.0 45 27 22 24.1 101.00     LegendNANA
14:00 Legend Double Dagger 15.7 3.3 43 25 17 24.1 101.02     Mainly Clear
15:00 Legend Double Dagger 16.1 3.9 44 26 17 24.1 101.07     LegendNANA
16:00 Legend Double Dagger 16.0 3.9 44 22 17 24.1 101.12     LegendNANA
17:00 Legend Double Dagger 15.0 4.2 48 25 8 24.1 101.18     Mainly Clear
18:00 Legend Double Dagger 10.4 5.4 71 36 2 24.1 101.25     LegendNANA
19:00 Legend Double Dagger 7.8 5.3 84 36 1 24.1 101.32     LegendNANA
20:00 Legend Double Dagger 5.7 4.7 93 36 2 24.1 101.38     Clear
21:00 Legend Double Dagger 4.4 3.4 93 23 3 24.1 101.44     LegendNANA
22:00 Legend Double Dagger 4.8 3.9 94 24 5 24.1 101.51     LegendNANA
23:00 Legend Double Dagger 4.0 3.3 95 23 3 24.1 101.59     Clear

Notes on Data Quality.

Legend

  • E = Estimated
  • M = Missing
  • NA = Not Available
  • ‡ = Partner data that is not subject to review by the National Climate Archives
Date modified: